Temperature
32 32 31 32 33 33 33 33 32 32 33 32 31 30 31 30 30 29 29 28 27 26 25 24 24 23 22 21 21 20 20 20 20 20 20 20 19 19 19 19 19 19 19 19
32 32 33 33 34 33 33 33 32 33 33 33 31 30 31 30 30 30 29 28 27 27 25 25 24 23 22 21 21 20 20 20 20 20 20 20 20 20 19 19 19 19 19 19
31 33 34 33 33 33 33 32 32 33 33 33 32 30 29 30 30 30 30 29 28 27 26 25 24 23 23 22 21 21 20 20 20 20 20 20 20 20 19 19 19 19 19 19
32 34 34 33 33 33 32 33 33 33 32 31 31 28 28 28 29 30 29 29 29 28 26 25 24 23 23 22 21 21 21 20 20 20 20 20 20 19 19 19 19 19 19 19
32 33 33 33 33 33 33 34 33 32 31 30 30 29 28 29 28 29 30 29 29 28 27 26 25 24 23 22 21 21 21 21 20 20 20 20 20 19 19 19 19 19 19 19
32 33 34 33 34 34 34 33 32 32 31 29 30 30 29 29 29 29 29 29 29 28 27 26 25 24 23 22 22 21 21 21 20 20 20 20 20 20 19 19 19 19 19 19
32 33 34 34 33 34 34 31 30 29 29 30 31 30 29 30 31 30 30 29 29 28 27 26 25 24 24 23 22 21 21 21 21 20 20 20 20 19 19 19 19 19 19 19
31 31 33 34 33 33 33 32 29 29 29 30 31 30 30 31 31 31 30 29 29 28 27 26 25 24 24 23 22 22 21 21 21 20 20 20 20 19 19 19 19 19 19 19
31 31 33 34 34 34 32 31 32 30 29 29 29 29 30 30 31 31 30 29 29 28 27 26 25 25 24 23 23 22 21 21 21 20 20 20 20 19 19 19 19 19 19 19
31 31 32 33 34 33 33 32 32 30 29 28 29 28 28 29 30 31 30 29 29 28 27 26 26 25 24 24 23 22 22 21 21 20 20 20 19 19 19 19 19 18 18 18
32 31 31 32 32 32 32 32 31 30 30 29 28 28 30 30 30 30 30 29 28 28 27 26 25 25 24 24 23 22 22 21 21 20 20 19 19 19 19 19 18 18 18 18
31 31 30 31 33 33 33 32 31 30 29 29 28 28 31 30 30 31 30 29 28 27 27 26 25 25 24 23 23 22 22 21 20 20 20 19 19 19 18 18 18 18 18 17
31 30 29 30 31 32 31 32 32 32 30 29 28 28 30 30 30 30 29 28 27 26 26 26 25 24 24 23 23 22 21 21 20 20 19 19 19 18 18 18 18 18 17 17
31 30 29 28 29 30 30 31 32 31 30 29 28 28 28 29 29 30 29 28 27 26 26 25 24 24 23 22 22 22 21 21 20 20 19 19 18 18 18 18 18 17 17 17
31 29 29 29 30 30 30 31 31 31 31 29 27 27 28 29 29 29 28 27 27 26 25 24 23 23 22 22 21 21 21 20 20 19 19 19 18 18 18 18 17 17 17 17
31 29 29 29 30 30 30 31 31 31 31 30 29 28 29 29 29 28 28 27 26 25 24 23 23 22 22 21 21 21 20 20 19 19 19 18 18 18 18 18 17 17 17 16
30 28 28 28 30 30 29 30 31 31 31 31 29 29 30 29 28 27 27 26 25 24 23 23 22 22 21 21 20 20 20 19 19 19 18 18 18 18 18 17 17 17 17 16
29 28 28 28 29 27 28 30 30 30 30 31 30 30 29 28 27 27 26 25 25 24 23 22 22 21 21 20 20 20 19 19 19 18 18 18 18 17 17 17 17 17 16 16
30 28 28 28 28 27 28 29 30 29 29 29 29 29 29 27 27 26 25 24 23 23 22 22 21 21 20 20 19 19 19 19 18 18 18 18 17 17 17 17 17 16 16 16
29 29 28 27 27 26 28 29 30 30 28 28 28 28 28 28 26 25 24 23 22 22 21 21 20 20 19 19 19 19 18 18 18 18 17 17 17 17 17 16 16 16 16 15
28 27 27 27 27 27 28 29 30 28 26 27 28 27 27 26 25 24 23 22 21 21 21 20 20 19 19 19 18 18 18 18 17 17 17 17 17 17 17 16 16 16 16 15
28 27 27 27 26 26 28 28 27 25 26 27 26 26 25 24 24 23 22 21 21 20 20 19 19 19 18 18 18 18 17 17 17 17 17 17 17 16 16 16 16 16 15 15
28 27 27 26 26 26 26 25 25 25 26 26 25 25 24 23 23 22 21 20 20 19 19 19 18 18 18 18 17 17 17 17 16 16 16 16 16 16 16 16 16 15 15 15
28 28 27 26 26 26 25 25 25 25 25 24 24 24 23 23 22 21 20 20 19 19 18 18 18 17 17 17 17 17 17 16 16 16 16 16 16 16 16 16 15 15 15 15
26 27 27 26 26 25 25 24 24 24 24 24 23 23 22 22 21 20 19 19 18 18 18 17 17 17 17 16 16 16 16 16 16 15 15 15 15 15 15 15 15 15 15 15
25 25 25 25 24 25 24 24 24 23 23 23 22 22 21 21 20 19 19 18 18 17 17 17 17 16 16 16 16 16 16 15 15 15 15 15 15 15 15 15 15 15 15 15
Wind_Speed
11 8 8 8 9 8 7 2 1 3 4 4 4 6 8 9 8 9 10 10 9 8 9 9 8 8 9 8 7 5 3 3 2 1 1 0 1 1 1 2 3 3 2 2
10 12 10 9 9 7 6 5 3 3 5 4 5 6 8 7 8 9 10 10 10 9 10 9 8 7 8 8 7 5 5 4 2 2 1 1 1 0 1 1 2 2 1 1
12 8 8 8 8 6 6 6 5 3 2 4 5 4 6 4 4 6 10 10 11 11 11 10 9 7 8 8 7 5 4 4 3 2 1 0 0 0 1 1 2 1 1 1
12 11 9 8 8 8 6 6 6 4 4 3 3 3 6 7 7 7 7 9 10 11 11 11 10 8 8 8 7 6 5 4 3 2 1 1 1 0 1 0 1 1 1 1
12 11 10 9 8 8 8 7 6 5 5 6 5 3 6 9 7 6 6 7 8 10 12 11 10 9 9 8 8 7 6 4 3 2 1 1 0 0 0 1 1 0 2 1
13 12 9 8 9 8 7 7 6 7 6 8 7 5 5 7 9 8 6 6 7 8 10 11 10 9 8 8 8 8 7 5 4 3 2 1 1 0 0 0 0 1 1 2
13 14 12 10 11 9 7 7 6 6 6 6 5 3 4 8 9 9 9 7 8 8 9 9 9 9 9 8 8 8 8 6 5 4 2 2 1 1 1 1 1 1 0 1
12 12 12 10 10 9 8 8 7 7 5 3 2 2 6 8 8 8 8 7 6 8 8 9 8 8 8 8 8 8 8 7 5 4 3 3 2 2 1 0 2 1 1 1
8 7 7 8 9 9 8 8 9 8 8 6 2 4 6 7 7 8 8 7 6 6 7 8 7 7 7 7 8 8 9 7 6 5 4 3 3 1 0 0 1 1 2 2
10 8 7 6 8 9 10 9 6 6 5 6 2 4 5 7 7 7 8 7 7 5 5 7 6 5 5 6 7 7 9 8 6 5 5 4 3 2 1 0 1 1 2 3
11 10 9 9 9 9 9 10 7 5 5 5 3 0 5 7 7 8 8 8 6 5 4 6 6 5 4 4 5 6 7 8 7 6 4 3 3 3 2 1 0 1 1 2
7 8 9 9 8 7 8 9 8 6 4 4 4 1 3 5 5 7 8 8 6 4 5 5 5 5 4 4 3 4 5 7 7 6 5 3 3 3 2 1 1 0 0 1
4 5 8 8 6 7 8 9 9 8 5 5 4 2 2 5 4 5 8 8 7 5 4 5 5 5 4 3 3 4 4 4 4 5 5 4 3 3 2 2 1 1 0 1
5 7 7 8 6 6 8 9 8 8 6 3 2 3 1 2 4 5 7 7 7 6 5 6 6 5 5 4 4 3 3 3 3 4 4 4 4 3 2 2 2 2 1 1
6 9 8 9 11 9 10 9 8 8 5 3 4 4 3 2 4 6 7 7 7 6 6 6 5 5 5 4 3 3 3 2 2 3 3 4 4 3 2 2 2 1 2 2
7 7 9 10 10 9 10 8 7 7 4 3 4 2 3 5 5 5 6 6 6 6 5 5 5 5 4 3 3 3 2 2 2 2 2 3 3 3 3 2 2 1 1 1
8 7 9 10 9 8 9 8 7 5 4 3 2 2 4 7 7 6 5 6 6 6 5 5 5 5 3 3 3 2 2 2 2 1 1 2 2 2 2 2 2 1 1 1
6 5 6 9 7 8 6 6 6 4 2 2 6 6 6 7 6 7 7 7 6 6 5 5 4 4 3 3 3 2 2 2 1 1 1 1 2 1 1 1 1 1 1 0
5 5 7 8 8 8 6 5 5 4 1 3 4 5 4 7 6 7 9 8 7 6 5 5 5 4 4 4 3 2 2 2 1 1 0 1 1 1 1 2 1 1 1 1
7 6 8 8 8 8 4 4 3 3 3 4 4 3 4 3 2 5 7 7 6 6 5 5 5 5 4 4 3 2 2 1 0 1 0 0 1 1 1 1 1 1 1 2
10 10 11 10 9 4 2 2 2 3 1 4 5 5 6 6 5 6 6 6 6 5 5 5 5 4 3 3 3 2 2 2 2 1 1 1 1 1 1 1 1 1 1 2
9 8 8 8 8 4 5 3 2 3 4 4 5 6 7 7 7 6 6 6 5 4 5 5 4 3 3 3 3 2 2 2 2 1 0 1 0 2 1 2 2 2 2 3
7 5 3 1 1 4 7 8 6 5 5 6 6 6 6 5 5 6 6 5 4 4 4 4 3 3 3 3 2 2 2 2 1 1 0 0 0 1 1 1 2 2 3 4
4 3 3 2 4 5 5 6 6 5 5 5 5 5 4 5 5 5 4 4 4 4 4 4 3 3 3 3 3 2 2 2 1 0 1 1 1 1 2 2 2 2 2 3
2 2 3 3 3 4 5 4 4 4 4 4 4 4 4 4 4 4 3 4 4 3 4 4 3 3 3 3 3 3 2 2 1 1 1 2 2 2 2 1 2 1 1 2
3 2 2 1 2 1 3 3 4 4 4 5 5 5 5 4 4 4 3 3 3 3 3 4 4 3 3 3 3 3 2 2 1 2 2 3 3 3 3 2 1 0 2 2
Wind_Direction
243 243 253 255 252 265 286 259 193 181 169 149 153 156 152 154 167 167 165 157 153 150 144 139 139 137 132 128 125 123 131 134 134 104 101 99 110 109 112 117 112 98 91 82
244 245 247 263 266 270 290 293 263 193 162 165 156 157 150 169 182 169 164 161 159 157 147 145 145 141 138 138 137 148 156 149 155 148 165 185 226 197 121 90 108 115 106 91
243 248 245 254 266 268 272 283 280 249 187 201 183 152 141 176 187 172 166 166 164 161 156 154 154 156 151 147 149 150 147 147 162 169 177 143 177 55 70 82 95 117 129 117
254 253 252 256 260 266 272 271 275 275 275 256 204 183 174 181 195 182 173 172 167 162 157 158 159 160 156 152 148 140 142 145 157 164 176 205 173 146 122 121 102 120 133 129
252 256 260 254 258 265 273 284 291 284 268 273 241 214 171 167 176 178 183 169 161 161 159 161 161 160 159 155 153 152 146 152 157 168 177 224 237 178 95 58 84 196 158 148
258 260 257 260 264 263 271 282 284 273 261 256 239 229 158 162 158 165 171 158 151 151 152 153 155 155 158 159 158 155 148 151 157 172 178 194 227 285 16 321 299 266 177 150
246 248 243 244 258 254 258 268 271 267 244 241 209 206 142 145 146 155 159 152 152 150 145 145 149 158 161 163 161 153 152 162 174 180 183 180 221 222 214 275 252 273 304 95
236 237 232 236 245 255 251 256 258 276 286 290 226 169 126 124 128 131 129 135 149 141 141 144 150 157 164 167 162 156 157 168 176 181 187 176 201 235 190 316 314 333 351 50
259 243 225 232 240 251 260 260 258 268 278 272 210 112 119 137 135 132 129 133 131 127 140 145 150 159 165 168 169 166 160 167 177 180 186 183 195 230 325 245 282 3 17 47
254 263 254 231 242 242 251 264 270 266 278 283 212 173 167 156 146 131 121 117 113 123 137 140 146 151 158 162 168 170 164 165 169 177 189 182 179 191 221 57 60 30 23 33
241 254 248 235 231 243 238 252 262 276 287 282 282 284 131 150 150 135 122 114 120 127 127 134 137 139 141 147 154 162 166 162 169 179 174 170 167 170 163 158 72 59 35 12
230 252 255 241 244 252 257 261 264 265 274 289 282 248 126 130 147 131 120 114 105 99 110 111 130 133 135 140 142 148 161 163 168 165 163 175 158 156 159 172 162 169 157 295
246 256 262 246 242 239 245 251 257 265 267 258 261 216 103 86 81 108 114 112 108 95 93 102 102 109 111 111 109 115 123 141 152 159 166 165 155 154 159 169 171 199 271 287
259 253 256 261 263 254 250 256 265 265 269 253 235 233 251 122 131 116 108 108 106 101 88 83 78 77 78 83 91 99 109 124 144 150 160 160 162 161 171 182 175 189 224 252
247 249 247 254 261 256 261 257 262 263 266 238 214 217 243 161 112 99 103 104 100 86 74 73 77 74 71 67 80 100 100 105 129 143 163 164 165 164 175 197 200 200 225 243
231 265 267 253 251 257 264 265 257 261 259 205 200 218 187 134 109 91 93 95 94 86 78 67 68 73 71 68 73 89 98 118 125 156 168 157 171 165 171 195 203 207 228 258
227 239 262 267 259 257 265 268 266 264 286 257 187 154 105 93 95 96 98 93 86 91 92 79 70 67 69 77 76 76 87 99 125 158 159 155 166 176 191 218 207 204 212 235
230 245 254 261 266 259 260 286 292 283 300 34 82 80 84 87 87 89 92 89 81 72 72 70 68 73 59 55 52 50 63 88 98 118 133 157 159 177 186 207 216 184 181 194
245 247 257 263 260 255 264 263 258 250 344 51 87 94 96 94 83 78 67 71 71 69 66 69 58 54 50 41 36 36 60 80 62 23 57 125 163 183 182 192 207 185 206 239
226 238 249 260 266 259 246 236 260 225 168 54 63 70 70 72 95 81 69 69 68 63 58 61 60 51 43 34 25 26 22 50 42 294 351 47 115 163 172 180 204 210 224 242
216 223 239 256 262 256 325 344 288 259 83 41 59 55 55 54 57 82 80 70 66 64 57 58 58 52 42 26 18 21 9 353 342 11 49 64 55 155 166 174 175 198 220 246
219 228 235 251 261 271 12 353 27 77 68 59 60 63 66 67 68 72 73 72 63 55 52 48 49 50 39 26 15 8 8 343 343 360 51 101 154 257 231 175 190 206 220 239
217 225 235 250 163 73 54 70 77 76 68 62 62 64 67 69 69 64 65 64 60 49 44 37 35 39 28 12 5 350 347 329 320 315 319 72 285 286 280 234 217 224 231 247
194 208 212 155 130 102 84 79 73 63 61 53 55 62 58 65 68 64 60 57 51 43 35 27 17 12 9 356 347 340 338 342 353 330 296 270 247 258 263 254 241 239 245 250
316 241 222 191 141 117 89 80 85 82 71 60 52 57 61 66 65 63 61 54 44 32 22 16 5 353 351 349 346 342 343 345 333 305 267 255 250 247 254 262 293 272 286 249
274 269 235 199 123 151 110 98 89 81 67 55 45 44 51 55 57 56 56 47 36 19 14 7 357 351 346 347 340 335 330 322 308 289 273 269 262 247 231 223 272 265 216 220
Height
1481 1483 1486 1481 1475 1474 1472 1475 1480 1476 1470 1476 1482 1484 1484 1487 1490 1493 1497 1500 1503 1506 1509 1511 1513 1515 1515 1516 1517 1517 1518 1518 1518 1519 1519 1519 1520 1520 1520 1520 1520 1520 1520 1520
1482 1481 1475 1471 1469 1470 1472 1477 1478 1472 1468 1474 1481 1483 1482 1485 1488 1491 1494 1497 1501 1504 1507 1510 1512 1514 1514 1515 1516 1517 1517 1518 1518 1519 1519 1520 1520 1521 1521 1521 1521 1521 1520 1521
1482 1475 1470 1471 1471 1473 1474 1476 1477 1474 1471 1471 1478 1489 1487 1485 1487 1489 1491 1495 1498 1501 1505 1508 1511 1512 1514 1515 1515 1517 1517 1518 1518 1519 1519 1520 1520 1521 1521 1521 1521 1521 1521 1521
1474 1468 1468 1470 1472 1472 1479 1469 1470 1472 1478 1484 1480 1503 1494 1489 1487 1487 1490 1492 1495 1498 1502 1506 1508 1511 1513 1514 1515 1516 1516 1517 1518 1518 1519 1519 1520 1520 1521 1521 1521 1521 1521 1521
1474 1468 1469 1472 1469 1468 1472 1464 1467 1471 1479 1487 1483 1494 1496 1486 1490 1488 1488 1491 1493 1496 1499 1503 1506 1509 1511 1513 1514 1515 1516 1516 1517 1518 1518 1519 1520 1520 1520 1521 1520 1520 1520 1520
1469 1466 1466 1466 1464 1464 1464 1466 1470 1472 1480 1499 1486 1491 1496 1485 1485 1485 1486 1489 1492 1495 1498 1501 1505 1507 1510 1512 1513 1514 1514 1515 1516 1517 1518 1518 1519 1519 1520 1520 1520 1520 1520 1519
1474 1467 1463 1464 1467 1464 1465 1478 1495 1500 1499 1495 1476 1484 1488 1476 1475 1479 1483 1487 1490 1493 1496 1500 1503 1506 1508 1510 1512 1513 1513 1514 1515 1516 1517 1517 1518 1518 1519 1519 1519 1519 1519 1519
1481 1479 1464 1461 1466 1469 1468 1475 1498 1510 1507 1493 1480 1487 1479 1472 1474 1478 1481 1485 1489 1492 1495 1499 1502 1504 1507 1509 1510 1512 1512 1513 1514 1515 1515 1516 1517 1518 1518 1518 1519 1518 1518 1518
1476 1474 1460 1459 1460 1463 1471 1474 1471 1484 1491 1497 1490 1487 1479 1474 1476 1478 1481 1484 1487 1491 1494 1498 1501 1503 1505 1507 1509 1510 1510 1511 1513 1514 1514 1515 1516 1516 1517 1517 1517 1517 1517 1517
1467 1476 1464 1459 1460 1460 1464 1466 1473 1483 1500 1507 1496 1494 1491 1482 1479 1479 1481 1484 1487 1490 1494 1497 1499 1502 1504 1505 1507 1508 1509 1510 1511 1512 1513 1514 1514 1515 1515 1516 1515 1516 1516 1515
1463 1474 1470 1465 1467 1469 1467 1469 1471 1477 1482 1499 1508 1500 1472 1475 1476 1478 1480 1484 1487 1491 1493 1496 1498 1501 1502 1504 1506 1507 1508 1508 1509 1510 1511 1512 1513 1513 1514 1514 1514 1514 1514 1514
1462 1469 1475 1467 1458 1456 1460 1464 1468 1483 1488 1488 1497 1499 1470 1472 1475 1476 1480 1484 1487 1490 1493 1495 1497 1500 1502 1503 1505 1506 1507 1507 1508 1509 1510 1511 1512 1512 1513 1513 1513 1513 1513 1513
1462 1471 1485 1482 1474 1464 1464 1463 1462 1466 1475 1488 1497 1496 1471 1473 1475 1477 1481 1484 1488 1490 1493 1495 1497 1499 1501 1502 1504 1504 1505 1506 1507 1508 1508 1509 1510 1511 1511 1512 1512 1512 1512 1512
1463 1470 1482 1490 1481 1470 1469 1465 1462 1466 1478 1487 1491 1488 1478 1477 1477 1478 1481 1485 1488 1491 1494 1496 1498 1500 1501 1502 1503 1504 1505 1506 1507 1507 1507 1508 1508 1509 1510 1510 1510 1510 1510 1510
1464 1473 1474 1473 1468 1466 1467 1465 1463 1467 1470 1482 1487 1485 1480 1476 1477 1479 1482 1485 1489 1492 1495 1497 1499 1500 1501 1502 1503 1503 1504 1505 1505 1506 1506 1507 1507 1508 1508 1509 1509 1509 1509 1509
1464 1473 1473 1474 1466 1465 1467 1464 1464 1465 1466 1473 1477 1479 1473 1473 1477 1481 1483 1487 1489 1492 1496 1498 1500 1500 1501 1502 1503 1503 1503 1504 1504 1505 1505 1506 1506 1507 1507 1507 1507 1507 1507 1507
1464 1473 1480 1480 1467 1469 1479 1468 1464 1464 1463 1466 1475 1475 1471 1474 1479 1483 1486 1489 1492 1495 1497 1499 1500 1501 1502 1502 1503 1503 1503 1503 1503 1504 1504 1504 1505 1505 1505 1506 1506 1505 1505 1504
1467 1473 1476 1477 1477 1494 1476 1461 1462 1463 1464 1464 1467 1471 1474 1478 1483 1486 1489 1491 1494 1496 1498 1499 1501 1501 1502 1502 1502 1502 1502 1502 1502 1502 1502 1503 1503 1503 1504 1504 1504 1504 1503 1503
1462 1470 1475 1478 1483 1484 1471 1464 1463 1467 1471 1468 1470 1474 1477 1480 1484 1488 1490 1492 1495 1497 1498 1499 1500 1501 1501 1501 1501 1501 1501 1501 1501 1501 1501 1501 1501 1501 1501 1501 1501 1502 1501 1501
1463 1466 1475 1478 1487 1491 1476 1464 1462 1466 1477 1472 1473 1475 1477 1480 1485 1491 1492 1494 1496 1497 1498 1499 1500 1500 1500 1500 1500 1500 1500 1500 1500 1500 1500 1500 1500 1499 1499 1499 1499 1499 1499 1499
1468 1471 1475 1478 1482 1478 1468 1464 1466 1480 1485 1476 1476 1478 1481 1484 1488 1492 1494 1495 1497 1498 1498 1499 1499 1500 1500 1500 1499 1499 1499 1499 1499 1498 1498 1498 1497 1497 1497 1497 1497 1497 1497 1497
1467 1471 1475 1476 1485 1486 1470 1468 1475 1482 1479 1479 1480 1482 1485 1487 1490 1492 1494 1495 1497 1498 1499 1499 1499 1499 1499 1499 1498 1498 1497 1497 1497 1496 1496 1495 1495 1495 1495 1495 1494 1494 1494 1494
1460 1464 1467 1473 1480 1476 1474 1476 1479 1480 1481 1482 1483 1485 1488 1490 1492 1494 1496 1497 1497 1498 1499 1499 1499 1498 1498 1498 1498 1496 1496 1495 1495 1494 1494 1493 1493 1493 1493 1492 1492 1491 1491 1491
1458 1461 1464 1470 1473 1475 1477 1478 1480 1482 1483 1485 1486 1488 1490 1492 1493 1495 1497 1498 1498 1499 1499 1499 1498 1498 1497 1497 1496 1495 1494 1493 1492 1492 1491 1491 1491 1491 1490 1490 1489 1489 1489 1488
1463 1464 1466 1471 1475 1477 1479 1481 1482 1484 1485 1487 1488 1490 1491 1493 1494 1496 1497 1498 1498 1498 1498 1498 1497 1497 1496 1495 1494 1493 1492 1491 1490 1489 1489 1489 1489 1488 1488 1487 1487 1486 1486 1486
1466 1468 1470 1474 1476 1477 1481 1482 1483 1485 1487 1488 1490 1491 1493 1494 1495 1496 1497 1498 1498 1498 1497 1496 1496 1495 1494 1493 1491 1490 1489 1488 1488 1487 1487 1486 1486 1486 1485 1484 1484 1483 1483 1482